カタリナ彗星

C/2013 V4 ( Catalina )

English version
Home page
Updated on April 13, 2018

---------------------------------------------------------------------

・ プロフィール

発見日 2013年11月9日
発見光度 17.7等
発見者 R. E. Hill (Catalina Sky Survey)

・ 写真集

・ 軌道要素

Epoch 2015 Oct. 25.0 TT = JDT 2457320.5
T 2015 Oct. 7.60041 TT                                  MPCW
q   5.1854134            (2000.0)            P               Q
z  -0.0004976      Peri.   40.44923     +0.22786094     -0.60307982
 +/-0.0000002      Node    55.62129     +0.46389271     -0.62303013
e   1.0025805      Incl.   67.85538     +0.85608583     +0.49812467
From 2305 observations 2013 Oct. 23-2018 Mar. 24, mean residual 0".5.

・ 星図

・ 光度変化

        m1 = 5.0 + 5 logΔ + 10.0 log r

---------------------------------------------------------------------

軌道要素はM.P.E.C. 2018-F152に掲載されたものです。
星図はステラナビゲータ Ver.8 (アストロアーツ) で作成したものです。
光度グラフはComet for Windowsで作成したものです。

---------------------------------------------------------------------

Copyright(C) Seiichi Yoshida (comet@aerith.net). All rights reserved.